www.pogodaiklimat.ru

Погода и климат >> Архив погоды >> Ирак >> Karbalaa


ПОГОДА в Karbalaa

  • Прогноз погоды в Karbalaa
  • Монитор погоды в Karbalaa
  • Климат города

АРХИВ ПОГОДЫ в Karbalaa

Время (UTC), дата Ветер
(напр.,м/с)
 
Видим.   Явления Облачность Т
(С)
Тd
(С)
f
(%)
Тe
(С)
Тes
(С)
Комфортность P
(гПа)
Po
(гПа)
Тmin
(С)
Tmax
(С)
R
(мм)
R24
(мм)
S
(см)
03 12.12 С 3 10 км ясно +6.0 -3.8 49 +3 +3 1025.8 1026.0
06 12.12 С 3 10 км ясно +6.3 -1.9 56 +4 +6 1026.2 1026.0 +4.3
09 12.12 С 5 10 км ясно +15.7 +0.9 37 +15 +18 1024.7 1025.0
12 12.12 С 4 10 км ясно +19.3 +1.3 30 +19 +21 1022.5 1023.0
15 12.12 СЗ 3 10 км 4/0
[]
+15.8 +2.0 39 +15 +15 1022.8 1023.0
18 12.12 штиль 0 10 км ясно +12.1 +2.0 50 +12 +12 1022.7 1023.0 +20.2
21 12.12 штиль 0 10 км ясно +9.3 -0.4 51 +9 +9 1022.4 1022.0
03 13.12 штиль 0 10 км ясно +6.7 -2.1 53 +6 +6 1021.0 1021.0
09 13.12 С 3 10 км 3/0
[Ci sp]
+17.0 +1.7 36 +17 +22 1019.6 1020.0
12 13.12 С 3 10 км 5/0
[Ci sp]
+20.6 +2.0 29 +21 +23 комфорт 1017.0 1017.0
15 13.12 штиль 0 10 км 3/0
[Ci sp]
+15.5 +3.4 44 +15 +15 1017.1 1017.0
18 13.12 штиль 0 10 км 8/0
[]
+10.8 +2.6 57 +11 +11 1016.5 1017.0 +21.2
21 13.12 штиль 0 10 км ясно +9.8 +2.2 59 +9 +9 1015.7 1016.0
06 14.12 штиль 0 10 км ясно +7.0 +2.1 71 +6 +9 1016.8 1017.0 +5.3
12 14.12 штиль 0 10 км ясно +20.5 +5.3 37 +21 +24 комфорт 1014.3 1014.0
18 14.12 штиль 0 10 км ясно +11.0 +2.9 57 +11 +11 1015.9 1016.0 +21.6
03 15.12 штиль 0 10 км ясно +4.5 -1.0 67 +4 +4 1016.0 1016.0
06 15.12 штиль 0 10 км 1/0
[Ci fib]
+6.0 -0.4 63 +5 +9 1018.5 1019.0 +3.9
12 15.12 штиль 0 10 км ясно +20.4 +9.3 49 +22 +25 комфорт 1016.8 1017.0
15 15.12 штиль 0 10 км 5/5 840 м
[Cu hum]
+16.8 +8.6 58 +17 +17 1018.4 1018.0
18 15.12 штиль 0 10 км ясно +14.2 +6.7 61 +14 +14 1020.0 1020.0 +20.6
21 15.12 штиль 0 10 км ясно +10.6 +4.8 67 +10 +10 1020.5 1021.0
03 16.12 штиль 0 10 км ясно +6.5 +0.6 66 +6 +6 1022.6 1023.0
06 16.12 СЗ 3 10 км ясно +8.0 +1.0 61 +6 +8 1024.1 1024.0 +6.0
09 16.12 штиль 0 10 км ясно +16.2 +3.9 44 +16 +26 1023.0 1023.0
15 16.12 штиль 0 10 км ясно +16.0 +5.5 50 +16 +16 1022.7 1023.0
18 16.12 штиль 0 10 км ясно +11.6 +6.0 68 +11 +11 1023.5 1024.0 +20.6
03 17.12 штиль 0 10 км ясно +6.3 +0.9 68 +6 +6 1025.3 1025.0
06 17.12 З 2 10 км ясно +7.0 +0.6 64 +5 +7 1025.7 1026.0 +5.6
09 17.12 С 3 10 км 1/0
[]
+14.8 +5.2 53 +14 +20 1025.1 1025.0
12 17.12 СЗ 2 10 км ясно +19.6 +3.8 35 +21 +23 комфорт 1022.9 1023.0
15 17.12 штиль 0 10 км ясно +14.8 +5.5 54 +15 +15 1023.2 1023.0
18 17.12 штиль 0 10 км ясно +9.8 +3.8 66 +9 +9 1024.4 1024.0 +20.8
21 17.12 штиль 0 10 км ясно +7.1 +3.0 75 +6 +6 1024.6 1025.0
03 18.12 штиль 0 10 км ясно +7.0 -0.3 60 +7 +7 1025.0 1025.0
06 18.12 штиль 0 10 км 4/0
[Ci sp]
+9.4 -0.2 51 +9 +12 1026.3 1026.0 +6.6
09 18.12 штиль 0 10 км 4/0
[Ci sp]
+18.0 +0.7 31 +18 +27 1025.1 1025.0
15 18.12 штиль 0 10 км 5/5 840 м
[Sc]
+17.0 +0.4 32 +17 +17 1024.4 1024.0
18 18.12 штиль 0 10 км {дождь} 8/8 840 м
[Sc]
+14.4 +4.7 52 +14 +14 1024.9 1025.0 +21.6 0.0

 

Местоположение метеостанции Karbalaa (Ирак): широта 32.62 долгота 44.02 высота над уровнем моря 29 м.

В архиве по умолчанию представлена погода в Karbalaa за последнюю неделю. Архивные данные за месяц целиком и за предыдущие месяцы, начиная с января 2011 года, Вы можете получить, выбрав интересующий диапазон дат из раскрывающегося списка и нажав кнопку "Ввод!".

Внимание! Время в таблицах - всемирное. Для получения местного времени необходимо прибавить поправку, которая в Karbalaa равна 3 ч.

Смотрите также архив погоды в соседних городах и на ближайших метеорологических станциях:

Погода в Hella (Ирак) (45 км)
Погода в Baghdad (Ирак) (71 км)
Погода в Najaf (Ирак) (77 км)
Погода в Azizyah (Ирак) (104 км)
Погода в Ramadi (Ирак) (113 км)
Погода в Diwaniya (Ирак) (115 км)
Погода в Heet (Ирак) (115 км)
Погода в Ayn Al-Tamar (Ирак) (122 км)
Погода в Al-Khalis (Ирак) (143 км)
Погода в Ubaydah Bin Al Jarrah (Ирак) (163 км)

Пояснения к столбцам:

Ветер - указаны скорость ветра в м/с - средняя за 10 мин, порывы в срок и между сроками (в фигурных скобках) и направление, откуда дует ветер: С - северный, СВ - северо-восточный, В - восточный, ЮВ - юго-восточный, Ю - южный, ЮЗ - юго-западный, З - западный, СЗ - северо-западный.
Видимость - горизонтальная дальность видимости в метрах или километрах. При видимости от 1 до 10 км при отсутствии осадков обычно наблюдается дымка, при ухудшении видимости до 1 км и менее - туман. В сухую погоду видимость может ухудшаться дымом, пылью или мглою.
Явления - указаны атмосферные явления, наблюдавшиеся в срок или в последний час перед сроком; фигурными скобками обозначены явления, наблюдавшиеся между сроками (за 1-3 часа до срока); квадратными скобками обозначены град или гололедные отложения с указанием их диаметра в мм.
Облачность - указаны через наклонную черту общая и нижняя облачность в баллах и высота нижней границы облаков в метрах; квадратными скобками обозначены формы облаков: Ci - перистые, Cs - перисто-слоистые, Cc - перисто-кучевые, Ac - высококучевые, As - высокослоистые, Sc - слоисто-кучевые, Ns - слоисто-дождевые, Cu - кучевые, Cb - кучево-дождевые. Подробнее классификацию облаков см. в Атласе облаков (PDF).
T - Температура воздуха - температура, измеренная на высоте 2 м над землей.
Td - Температура точки росы - температура, при понижении до которой содержащийся в воздухе водяной пар достигнет насыщения.
f - Относительная влажность воздуха - влажноcть воздуха, измеренная на высоте 2 м над землей.
Te - Эффективная температура - температура, которую ощущает одетый по сезону человек в тени. Характеристика душности погоды. При расчете учитывается влияние влажности воздуха и скорости ветра на теплоощущения человека.
Tes - Эффективная температура на солнце - температура, которую ощущает человек, с поправкой на солнечный нагрев. Характеристика знойности погоды. Зависит от высоты солнца над горизонтом, облачности и скорости ветра. Ночью, в пасмурную погоду, а также при ветре 12 м/с и более поправка равна нулю.
P - Атмосферное давление - приведенное к уровню моря атмосферное давление.
Po - Атмосферное давление - измеренное на уровне метеостанции атмосферное давление.
Tmin - Минимальная температура - минимум температуры воздуха на высоте 2 м над землей.
Tmax - Максимальная температура - максимум температуры воздуха на высоте 2 м над землей.
R - Количество осадков - Количество выпавших осадков за период времени, мм. При наведении курсора мыши на число - период времени, за который выпало указанное количество осадков.
R24 - Количество осадков - Количество выпавших осадков за 24 часа, мм.
S - Снежный покров - Высота снежного покрова, см. При наведении курсора мыши на число - состояние снежного покрова и степень покрытия местности в баллах.